FW4079 Weather Reports


time (UTC)temp
C
wind
direction
speed
KPH
gust
KPH
rain 1hr
cm
rain 24hr
cm
rain mn
cm
humidity
%
barometer
mb
20260906221015 29 293 8.0 17.7 0.00 0.00 0.00 22 1019.0
20260906220516 30 270 3.2 14.5 0.00 0.00 0.00 23 1019.1
20260906220055 29 270 4.8 12.9 0.00 0.00 0.00 24 1019.2
20260906215515 29 293 6.4 12.9 0.00 0.00 0.00 23 1019.3
20260906215035 29 203 3.2 9.7 0.00 0.00 0.00 23 1019.3
20260906214536 29 293 3.2 11.3 0.00 0.00 0.00 23 1019.3
20260906214016 29 45 4.8 9.7 0.00 0.00 0.00 22 1019.4
20260906213515 29 45 3.2 6.4 0.00 0.00 0.00 23 1019.4
20260906213015 28 68 1.6 6.4 0.00 0.00 0.00 22 1019.5
20260906212515 28 113 3.2 6.4 0.00 0.00 0.00 23 1019.5
20260906212016 28 0.0 0.0 0.00 0.00 0.00 23 1019.6
20260906211515 28 68 1.6 3.2 0.00 0.00 0.00 22 1019.8
20260906211015 28 68 1.6 3.2 0.00 0.00 0.00 23 1019.9
20260906210515 29 68 4.8 9.7 0.00 0.00 0.00 22 1019.8
20260906210015 30 113 4.8 12.9 0.00 0.00 0.00 22 1020.0
20260906205515 31 135 3.2 6.4 0.00 0.00 0.00 21 1020.0
20260906205016 31 68 3.2 17.7 0.00 0.00 0.00 20 1020.0
20260906204515 31 68 3.2 11.3 0.00 0.00 0.00 20 1020.0
20260906204015 31 113 4.8 14.5 0.00 0.00 0.00 20 1020.1
20260906203515 31 203 1.6 6.4 0.00 0.00 0.00 20 1020.1
20260906203015 31 45 3.2 11.3 0.00 0.00 0.00 20 1020.1
20260906202515 31 68 6.4 14.5 0.00 0.00 0.00 20 1020.2
20260906202015 31 158 4.8 14.5 0.00 0.00 0.00 21 1020.4
20260906201515 31 68 4.8 17.7 0.00 0.00 0.00 20 1020.5
20260906201016 31 203 3.2 8.0 0.00 0.00 0.00 22 1020.7
20260906200516 30 180 4.8 9.7 0.00 0.00 0.00 21 1020.7
20260906200015 30 135 3.2 6.4 0.00 0.00 0.00 21 1020.7
20260906195515 30 293 4.8 11.3 0.00 0.00 0.00 20 1020.7
20260906195016 30 293 6.4 14.5 0.00 0.00 0.00 21 1020.7
20260906194515 30 203 3.2 8.0 0.00 0.00 0.00 22 1020.8
20260906194015 30 248 4.8 11.3 0.00 0.00 0.00 22 1020.9
20260906193535 30 203 4.8 12.9 0.00 0.00 0.00 22 1020.9
20260906193015 30 203 6.4 12.9 0.00 0.00 0.00 22 1020.9
20260906192515 30 270 3.2 8.0 0.00 0.00 0.00 21 1021.0
20260906192015 30 225 3.2 8.0 0.00 0.00 0.00 22 1021.1
20260906191515 30 45 3.2 6.4 0.00 0.00 0.00 21 1021.2
20260906191036 29 315 3.2 8.0 0.00 0.00 0.00 22 1021.3
20260906190515 29 293 3.2 11.3 0.00 0.00 0.00 21 1021.4
20260906190035 29 293 4.8 14.5 0.00 0.00 0.00 21 1021.6
20260906185516 28 158 4.8 9.7 0.00 0.00 0.00 22 1021.8
20260906185015 28 315 3.2 11.3 0.00 0.00 0.00 20 1021.9
20260906184515 29 293 6.4 14.5 0.00 0.00 0.00 20 1021.9
20260906184015 28 113 3.2 6.4 0.00 0.00 0.00 20 1022.0
20260906183515 28 293 3.2 6.4 0.00 0.00 0.00 21 1022.1
20260906183015 28 203 4.8 9.7 0.00 0.00 0.00 20 1022.2
20260906182553 28 270 4.8 16.1 0.00 0.00 0.00 20 1022.3
20260906182015 28 113 4.8 11.3 0.00 0.00 0.00 21 1022.4
20260906181516 28 270 3.2 9.7 0.00 0.00 0.00 21 1022.5
20260906181015 28 293 6.4 12.9 0.00 0.00 0.00 20 1022.6
20260906180515 27 293 6.4 12.9 0.00 0.00 0.00 19 1022.8
20260906180015 27 293 4.8 11.3 0.00 0.00 0.00 21 1022.9
20260906175515 27 0 1.6 8.0 0.00 0.00 0.00 24 1022.9
20260906175016 26 270 4.8 14.5 0.00 0.00 0.00 24 1022.9
20260906174515 26 135 3.2 8.0 0.00 0.00 0.00 26 1023.0
20260906174015 26 180 3.2 8.0 0.00 0.00 0.00 30 1023.1
20260906173515 25 45 1.6 6.4 0.00 0.00 0.00 35 1023.3
20260906173015 25 180 1.6 6.4 0.00 0.00 0.00 34 1023.4
20260906172555 24 180 3.2 4.8 0.00 0.00 0.00 35 1023.6
20260906172035 24 203 1.6 6.4 0.00 0.00 0.00 36 1023.6
20260906171555 23 0.0 6.4 0.00 0.00 0.00 39 1023.7
20260906171018 23 0.0 4.8 0.00 0.00 0.00 38 1024.0
20260906170517 22 203 1.6 4.8 0.00 0.00 0.00 41 1024.0
20260906170017 22 203 1.6 6.4 0.00 0.00 0.00 43 1024.1
20260906165517 21 180 1.6 6.4 0.00 0.00 0.00 44 1024.1
20260906165017 21 158 1.6 6.4 0.00 0.00 0.00 44 1024.1
20260906164517 20 0.0 0.0 0.00 0.00 0.00 46 1024.2
20260906164017 20 225 1.6 4.8 0.00 0.00 0.00 47 1024.3
20260906163517 19 225 1.6 4.8 0.00 0.00 0.00 48 1024.4
20260906163017 18 225 1.6 6.4 0.00 0.00 0.00 51 1024.5
20260906162517 18 248 1.6 4.8 0.00 0.00 0.00 54 1024.5
20260906162017 17 315 1.6 4.8 0.00 0.00 0.00 57 1024.5
20260906161537 16 0.0 4.8 0.00 0.00 0.00 58 1024.5
20260906161018 16 0.0 3.2 0.00 0.00 0.00 58 1024.6
20260906160517 15 0.0 0.0 0.00 0.00 0.00 62 1024.5
20260906160017 14 0.0 0.0 0.00 0.00 0.00 67 1024.7
20260906155516 13 0.0 3.2 0.00 0.00 0.00 68 1024.7
20260906155017 13 0.0 3.2 0.00 0.00 0.00 68 1024.7
20260906154517 13 0.0 0.0 0.00 0.00 0.00 71 1024.8
20260906154016 13 0.0 0.0 0.00 0.00 0.00 72 1024.6
20260906153537 12 0.0 0.0 0.00 0.00 0.00 74 1024.7
20260906153018 12 0.0 1.6 0.00 0.00 0.00 76 1024.6
20260906152517 11 0.0 1.6 0.00 0.00 0.00 78 1024.7
20260906152016 11 0.0 0.0 0.00 0.00 0.00 80 1024.7
20260906151516 10 0.0 0.0 0.00 0.00 0.00 83 1024.8
20260906151036 10 0.0 0.0 0.00 0.00 0.00 85 1025.0
20260906150517 9 0.0 0.0 0.00 0.00 0.00 86 1025.0
20260906150037 9 0.0 0.0 0.00 0.00 0.00 87 1025.0
20260906145516 8 0.0 0.0 0.00 0.00 0.00 89 1025.0
20260906145016 8 0.0 0.0 0.00 0.00 0.00 89 1025.0
20260906144517 8 0.0 0.0 0.00 0.00 0.00 89 1025.0
20260906144017 8 0.0 0.0 0.00 0.00 0.00 90 1025.0
20260906143517 7 0.0 0.0 0.00 0.00 0.00 90 1025.0
20260906143016 7 0.0 0.0 0.00 0.00 0.00 90 1025.1
20260906142538 7 0.0 1.6 0.00 0.00 0.00 90 1025.0
20260906142017 7 0.0 0.0 0.00 0.00 0.00 91 1025.1
20260906141516 7 0.0 0.0 0.00 0.00 0.00 91 1025.2
20260906141016 7 0.0 0.0 0.00 0.00 0.00 91 1025.1
20260906140516 6 0.0 3.2 0.00 0.00 0.00 91 1025.1
20260906140037 6 0.0 0.0 0.00 0.00 0.00 91 1025.1
20260906135516 6 0.0 1.6 0.00 0.00 0.00 90 1024.9
20260906135016 6 0.0 0.0 0.00 0.00 0.00 90 1025.0
20260906134516 6 0.0 0.0 0.00 0.00 0.00 90 1025.0
20260906134016 6 0.0 0.0 0.00 0.00 0.00 89 1025.0
20260906133536 6 0.0 0.0 0.00 0.00 0.00 89 1024.9
20260906133017 6 0.0 0.0 0.00 0.00 0.00 89 1024.8
20260906132537 6 0.0 0.0 0.00 0.00 0.00 89 1024.8
20260906132016 6 0.0 0.0 0.00 0.00 0.00 89 1024.7
20260906131516 6 0.0 1.6 0.00 0.00 0.00 89 1024.5
20260906131017 5 0.0 0.0 0.00 0.00 0.00 89 1024.6
20260906130516 5 0.0 0.0 0.00 0.00 0.00 88 1024.5
20260906130016 5 0.0 0.0 0.00 0.00 0.00 88 1024.6
20260906125536 5 0.0 1.6 0.00 0.00 0.00 88 1024.5
20260906125017 6 0.0 1.6 0.00 0.00 0.00 88 1024.5
20260906124517 6 0.0 0.0 0.00 0.00 0.00 88 1024.5
20260906124016 6 0.0 1.6 0.00 0.00 0.00 88 1024.4
20260906123516 6 0.0 0.0 0.00 0.00 0.00 88 1024.5
20260906123021 6 0.0 0.0 0.00 0.00 0.00 88 1024.4
20260906122516 6 0.0 0.0 0.00 0.00 0.00 88 1024.5
20260906122037 6 0.0 0.0 0.00 0.00 0.00 88 1024.5
20260906121537 6 0.0 0.0 0.00 0.00 0.00 88 1024.4
20260906121016 6 68 3.2 4.8 0.00 0.00 0.00 87 1024.5
20260906120516 6 68 1.6 3.2 0.00 0.00 0.00 87 1024.3
20260906120036 6 0.0 0.0 0.00 0.00 0.00 87 1024.3
20260906115516 6 0.0 0.0 0.00 0.00 0.00 87 1024.3
20260906115057 6 0.0 0.0 0.00 0.00 0.00 87 1024.3
20260906114516 6 0.0 0.0 0.00 0.00 0.00 87 1024.4
20260906114017 6 0.0 1.6 0.00 0.00 0.00 87 1024.3
20260906113516 6 68 1.6 3.2 0.00 0.00 0.00 87 1024.1
20260906113016 6 0.0 4.8 0.00 0.00 0.00 86 1024.2
20260906112516 6 68 3.2 4.8 0.00 0.00 0.00 86 1024.1
20260906112016 6 68 1.6 4.8 0.00 0.00 0.00 86 1024.1
20260906111517 6 0.0 4.8 0.00 0.00 0.00 86 1024.1
20260906111016 6 0.0 0.0 0.00 0.00 0.00 85 1024.1
20260906110516 6 0.0 0.0 0.00 0.00 0.00 85 1024.1
20260906110016 6 0.0 0.0 0.00 0.00 0.00 85 1024.2
20260906105517 6 0.0 0.0 0.00 0.00 0.00 85 1024.1
20260906105056 6 0.0 0.0 0.00 0.00 0.00 85 1023.9
20260906104516 6 0.0 0.0 0.00 0.00 0.00 84 1024.0
20260906104036 6 0.0 0.0 0.00 0.00 0.00 84 1024.1
20260906103517 6 0.0 0.0 0.00 0.00 0.00 84 1024.1
20260906103016 6 0.0 0.0 0.00 0.00 0.00 84 1024.1
20260906102516 6 0.0 0.0 0.00 0.00 0.00 83 1024.1
20260906102016 7 0.0 0.0 0.00 0.00 0.00 83 1024.0
20260906101516 7 0.0 0.0 0.00 0.00 0.00 83 1024.0
20260906101017 7 0.0 0.0 0.00 0.00 0.00 83 1024.0
20260906100516 7 0.0 0.0 0.00 0.00 0.00 83 1023.9
20260906100016 7 0.0 0.0 0.00 0.00 0.00 83 1023.9
20260906095516 7 0.0 0.0 0.00 0.00 0.00 83 1023.9
20260906095016 7 0.0 0.0 0.00 0.00 0.00 82 1023.9
20260906094516 7 0.0 0.0 0.00 0.00 0.00 82 1023.8
20260906094016 7 0.0 0.0 0.00 0.00 0.00 82 1023.8
20260906093617 7 0.0 0.0 0.00 0.00 0.00 82 1023.8
20260906093016 7 0.0 0.0 0.00 0.00 0.00 81 1023.8
20260906092516 7 0.0 0.0 0.00 0.00 0.00 82 1023.8
20260906092016 7 0.0 0.0 0.00 0.00 0.00 81 1023.9
20260906091516 8 0.0 0.0 0.00 0.00 0.00 81 1023.7
20260906091016 8 0.0 0.0 0.00 0.00 0.00 81 1023.8
20260906090537 8 0.0 0.0 0.00 0.00 0.00 81 1023.7
20260906090016 8 0.0 0.0 0.00 0.00 0.00 80 1023.8
20260906085536 8 0.0 0.0 0.00 0.00 0.00 80 1023.8
20260906085016 8 0.0 0.0 0.00 0.00 0.00 80 1023.8
20260906084516 8 0.0 0.0 0.00 0.00 0.00 80 1023.6
20260906084037 8 0.0 0.0 0.00 0.00 0.00 80 1023.6
20260906083516 8 0.0 0.0 0.00 0.00 0.00 79 1023.6
20260906083016 8 0.0 0.0 0.00 0.00 0.00 80 1023.6
20260906082516 9 0.0 0.0 0.00 0.00 0.00 79 1023.6
20260906082016 9 0.0 0.0 0.00 0.00 0.00 79 1023.5
20260906081516 9 0.0 0.0 0.00 0.00 0.00 79 1023.5
20260906081016 9 0.0 0.0 0.00 0.00 0.00 78 1023.5
20260906080516 9 0.0 0.0 0.00 0.00 0.00 78 1023.6
20260906080016 9 0.0 0.0 0.00 0.00 0.00 78 1023.6
20260906075516 9 0.0 0.0 0.00 0.00 0.00 78 1023.5
20260906075016 9 0.0 0.0 0.00 0.00 0.00 78 1023.6
20260906074516 10 0.0 0.0 0.00 0.00 0.00 79 1023.6
20260906074016 10 0.0 0.0 0.00 0.00 0.00 79 1023.6
20260906073517 10 0.0 0.0 0.00 0.00 0.00 79 1023.6
20260906073016 10 0.0 0.0 0.00 0.00 0.00 78 1023.6
20260906072516 10 0.0 0.0 0.00 0.00 0.00 79 1023.6
20260906072016 10 0.0 0.0 0.00 0.00 0.00 78 1023.6
20260906071537 10 0.0 0.0 0.00 0.00 0.00 77 1023.5
20260906071016 10 0.0 0.0 0.00 0.00 0.00 76 1023.4
20260906070516 10 0.0 0.0 0.00 0.00 0.00 76 1023.5
20260906070016 10 0.0 0.0 0.00 0.00 0.00 75 1023.6
20260906065516 10 0.0 0.0 0.00 0.00 0.00 75 1023.4
20260906065016 10 0.0 0.0 0.00 0.00 0.00 75 1023.5
20260906064536 10 0.0 0.0 0.00 0.00 0.00 75 1023.6
20260906064016 10 0.0 0.0 0.00 0.00 0.00 75 1023.4
20260906063516 10 0.0 0.0 0.00 0.00 0.00 75 1023.4
20260906063017 10 0.0 0.0 0.00 0.00 0.00 74 1023.4
20260906062515 10 0.0 0.0 0.00 0.00 0.00 73 1023.4
20260906062016 10 0.0 0.0 0.00 0.00 0.00 73 1023.4
20260906061516 10 0.0 0.0 0.00 0.00 0.00 72 1023.4
20260906061016 11 0.0 0.0 0.00 0.00 0.00 72 1023.4
20260906060515 11 0.0 0.0 0.00 0.00 0.00 71 1023.3
20260906060036 11 0.0 0.0 0.00 0.00 0.00 71 1023.3
20260906055516 11 0.0 0.0 0.00 0.00 0.00 71 1023.2
20260906055016 11 0.0 0.0 0.00 0.00 0.00 71 1023.1
20260906054517 11 0.0 0.0 0.00 0.00 0.00 70 1023.1
20260906054036 11 0.0 0.0 0.00 0.00 0.00 69 1023.2
20260906053516 11 0.0 0.0 0.00 0.00 0.00 69 1023.3
20260906053017 11 0.0 0.0 0.00 0.00 0.00 68 1023.2
20260906052516 11 0.0 0.0 0.00 0.00 0.00 68 1023.2
20260906052016 11 0.0 0.0 0.00 0.00 0.00 68 1023.1
20260906051516 12 0.0 1.6 0.00 0.00 0.00 68 1023.2
20260906051016 12 0.0 1.6 0.00 0.00 0.00 67 1023.2
20260906050517 12 0.0 0.0 0.00 0.00 0.00 66 1023.1
20260906050016 12 0.0 0.0 0.00 0.00 0.00 66 1023.0
20260906045516 12 0.0 0.0 0.00 0.00 0.00 64 1023.0
20260906045016 12 0.0 0.0 0.00 0.00 0.00 64 1023.1
20260906044516 12 0.0 3.2 0.00 0.00 0.00 64 1023.2
20260906044016 12 0.0 3.2 0.00 0.00 0.00 64 1023.1
20260906043516 13 0.0 0.0 0.00 0.00 0.00 63 1023.1
20260906043017 13 0.0 0.0 0.00 0.00 0.00 62 1022.9
20260906042516 13 0.0 0.0 0.00 0.00 0.00 61 1023.1
20260906042016 13 0.0 0.0 0.00 0.00 0.00 61 1022.9
20260906041517 13 0.0 0.0 0.00 0.00 0.00 61 1022.9
20260906041016 13 0.0 0.0 0.00 0.00 0.00 61 1022.8
20260906040536 13 0.0 0.0 0.00 0.00 0.00 59 1022.6
20260906040016 14 0.0 4.8 0.00 0.00 0.00 59 1022.6
20260906035517 14 45 1.6 4.8 0.00 0.00 0.00 58 1022.6
20260906035016 14 0.0 3.2 0.00 0.00 0.00 57 1022.7
20260906034516 15 270 1.6 3.2 0.00 0.00 0.00 57 1022.5
20260906034016 15 68 3.2 6.4 0.00 0.00 0.00 56 1022.6
20260906033516 15 68 1.6 6.4 0.00 0.00 0.00 56 1022.4
20260906033036 15 0.0 0.0 0.00 0.00 0.00 55 1022.6
20260906032537 16 0.0 0.0 0.00 0.00 0.00 54 1022.4
20260906032016 16 0.0 0.0 0.00 0.00 0.00 52 1022.4
20260906031516 16 0.0 0.0 0.00 0.00 0.00 50 1022.4
20260906031016 16 0.0 0.0 0.00 0.00 0.00 50 1022.2
20260906030516 17 0.0 0.0 0.00 0.00 0.00 49 1022.1
20260906030037 17 0.0 0.0 0.00 0.00 0.00 48 1022.1
20260906025516 17 0.0 1.6 0.00 0.00 0.00 48 1022.0
20260906025016 17 0.0 0.0 0.00 0.00 0.00 46 1022.0
20260906024516 18 0.0 0.0 0.00 0.00 0.00 46 1021.9
20260906024016 18 0.0 0.0 0.00 0.00 0.00 44 1021.9
20260906023516 19 0.0 0.0 0.00 0.00 0.00 42 1021.9
20260906023016 20 0.0 0.0 0.00 0.00 0.00 42 1021.7
20260906022516 20 0.0 0.0 0.00 0.00 0.00 38 1021.6
20260906022016 21 0.0 0.0 0.00 0.00 0.00 38 1021.5
20260906021516 21 0.0 0.0 0.00 0.00 0.00 39 1021.4
20260906021016 21 0.0 0.0 0.00 0.00 0.00 38 1021.4
20260906020516 21 0.0 0.0 0.00 0.00 0.00 37 1021.3
20260906020036 22 0.0 0.0 0.00 0.00 0.00 36 1021.3
20260906015516 23 0.0 0.0 0.00 0.00 0.00 30 1021.2
20260906015016 24 0.0 3.2 0.00 0.00 0.00 29 1021.1
20260906014516 24 0 1.6 4.8 0.00 0.00 0.00 28 1021.2
20260906014016 25 0 1.6 4.8 0.00 0.00 0.00 28 1021.2
20260906013536 25 0 1.6 6.4 0.00 0.00 0.00 27 1021.0
20260906013016 25 338 1.6 4.8 0.00 0.00 0.00 27 1021.0
20260906012517 26 338 3.2 6.4 0.00 0.00 0.00 26 1021.1
20260906012036 26 0 3.2 6.4 0.00 0.00 0.00 26 1021.2
20260906011536 26 338 3.2 4.8 0.00 0.00 0.00 25 1021.2
20260906011015 26 0 3.2 4.8 0.00 0.00 0.00 25 1021.2
20260906010515 26 338 4.8 11.3 0.00 0.00 0.00 25 1021.2
20260906010015 26 270 4.8 11.3 0.00 0.00 0.00 25 1021.2
20260906005516 26 315 4.8 12.9 0.00 0.00 0.00 25 1021.2
20260906005015 27 0.0 9.7 0.00 0.00 0.00 26 1021.1
20260906004516 27 0.0 0.0 0.00 0.00 0.00 25 1021.2
20260906004015 27 0.0 0.0 0.00 0.00 0.00 26 1021.0
20260906003516 27 0.0 0.0 0.00 0.00 0.00 26 1021.1
20260906003016 27 0.0 0.0 0.00 0.00 0.00 23 1021.2
20260906002515 27 0.0 1.6 0.00 0.00 0.00 23 1021.1
20260906002016 27 180 1.6 4.8 0.00 0.00 0.00 23 1021.2
20260906001516 27 0.0 3.2 0.00 0.00 0.00 24 1021.2
20260906001056 27 293 1.6 6.4 0.00 0.00 0.00 22 1021.1
20260906000515 27 0.0 6.4 0.00 0.00 0.00 25 1021.1
20260906000015 27 0.0 3.2 0.00 0.00 0.00 24 1021.0
20260905235516 28 0.0 6.4 0.00 0.00 0.00 24 1021.1
20260905235036 28 293 1.6 9.7 0.00 0.00 0.00 22 1021.0
20260905234515 28 315 3.2 8.0 0.00 0.00 0.00 24 1021.1
20260905234015 28 315 3.2 8.0 0.00 0.00 0.00 24 1021.1
20260905233516 28 315 4.8 8.0 0.00 0.00 0.00 23 1021.2
20260905233015 28 270 3.2 12.9 0.00 0.00 0.00 25 1021.1
20260905232515 28 293 3.2 4.8 0.00 0.00 0.00 24 1021.1
20260905232015 28 293 3.2 11.3 0.00 0.00 0.00 24 1021.2
20260905231517 28 293 1.6 6.4 0.00 0.00 0.00 23 1021.1
20260905231015 28 293 6.4 14.5 0.00 0.00 0.00 22 1021.1
20260905230515 28 293 6.4 17.7 0.00 0.00 0.00 23 1021.1
20260905230015 28 293 8.0 19.3 0.00 0.00 0.00 23 1021.1
20260905225536 29 315 4.8 14.5 0.00 0.00 0.00 23 1021.2
20260905225035 28 270 3.2 12.9 0.00 0.00 0.00 23 1021.1
20260905224516 28 293 4.8 12.9 0.00 0.00 0.00 23 1021.1
20260905224056 28 293 4.8 11.3 0.00 0.00 0.00 23 1021.1
20260905223515 28 293 4.8 9.7 0.00 0.00 0.00 23 1021.2
20260905223015 28 45 3.2 6.4 0.00 0.00 0.00 23 1021.2
20260905222516 28 68 4.8 9.7 0.00 0.00 0.00 23 1021.3
20260905222016 28 225 4.8 9.7 0.00 0.00 0.00 22 1021.4
20260905221535 29 270 4.8 12.9 0.00 0.00 0.00 23 1021.4